User: anonymous   Login
Location: Southlake
(32.9412°N, 97.1342°W)
Time: 22:58:34
(UTC+00:00)
Language:

Nadezhda 4 Rocket - Orbit

View from above orbital plane
View from above orbital plane
View from above satellite
View from above satellite

Ground track
Ground track

The orbit data is extracted from the following two-line orbital elements,

1 23180U 94041B   22139.46876574  .00000112  00000-0  95851-4 0  9992
2 23180  82.9494  33.5851 0027879 223.2159 309.7868 13.78044772400013
Epoch (UTC): 19 May 2022 11:15:01
Eccentricity: 0.0027879
inclination: 82.9494°
perigee height: 950 km
apogee height: 991 km
right ascension of ascending node: 33.5851°
argument of perigee: 223.2159°
revolutions per day: 13.78044772
mean anomaly at epoch: 309.7868°
orbit number at epoch: 40001

The dashed part of the orbit path shows where the satellite is in the earth's shadow,  

DLR